User: anonymous   Login
Location: Unspecified
(0.0000°N, 0.0000°E)
Time: 04:11:37
(UTC+00:00)
Language:

STARLINK-31807 - Orbit

View from above orbital plane
View from above orbital plane
View from above satellite
View from above satellite

Ground track
Ground track

The orbit is defined by the following mean orbital elements,

1 59639U          26145.48666873 +.00000000 +00000-0 +21397-4 0 00007
2 59639  43.0033  66.3942 0000911 274.5563  85.5185 15.27574083    04
Epoch (UTC): 25 May 2026 11:40:48
Eccentricity: 0.0000911
inclination: 43.0033°
perigee height: 482 km
apogee height: 484 km
right ascension of ascending node: 66.3942°
argument of perigee: 274.5563°
revolutions per day: 15.27574083
mean anomaly at epoch: 85.5185°

The dashed part of the orbit path shows where the satellite is in the earth's shadow,  

DLR